This demonstration page uses our WeatherBlox Daily Observations layout. Learn more.

Left ArrowRight Arrow

39.01783, -85.05884

Hourly Observations for April 27, 2020

Temp ( °F °C ) Dew Point ( °F °C ) Humidity (%) Winds ( mph kmh ) Pressure ( in mb ) Visibility ( mi km ) Precip ( " mm )
12:52 am 00:52 Clear 43 6.1 40 4.4 89 89 N N/A 30.14 1021 10 16 N/A
1:52 am 01:52 Clear 45 7.2 38 3.3 77 77 N 3 6 30.14 1021 10 16 N/A
2:52 am 02:52 Clear 45 7.2 36 2.2 71 71 NNE 6 9 30.15 1021 10 16 N/A
3:52 am 03:52 Clear 42 5.6 36 2.2 79 79 N N/A 30.16 1021 10 16 N/A
4:52 am 04:52 Clear 40 4.4 35 1.7 83 83 N N/A 30.16 1022 10 16 N/A
5:52 am 05:52 Clear 40 4.4 36 2.2 86 86 N N/A 30.16 1021 10 16 N/A
6:52 am 06:52 Sunny 37 2.8 35 1.7 93 93 N N/A 30.17 1022 8 13 N/A
7:52 am 07:52 Sunny 36 2.2 34 1.1 93 93 N N/A 30.20 1023 10 16 N/A
8:52 am 08:52 Sunny 47 8.3 40 4.4 77 77 SSE 3 6 30.22 1023 9 14 N/A
9:52 am 09:52 Mostly Cloudy 52 11.1 39 3.9 61 61 S 6 9 30.24 1024 10 16 N/A
10:52 am 10:52 Partly Cloudy 54 12.2 37 2.8 53 53 SE 3 6 30.24 1024 10 16 N/A
11:52 am 11:52 Mostly Sunny 57 13.9 34 1.1 42 42 SSE 6 9 30.24 1024 10 16 N/A
12:52 pm 12:52 Partly Cloudy 60 15.6 36 2.2 41 41 SSW 7 11 30.22 1024 10 16 N/A
1:52 pm 13:52 Partly Cloudy 62 16.7 36 2.2 38 38 N N/A 30.19 1023 10 16 N/A
2:52 pm 14:52 Partly Cloudy 64 17.8 32 undefined 30 30 W 6 9 30.17 1022 10 16 N/A
3:52 pm 15:52 Mostly Sunny 64 17.8 33 0.6 32 32 VRB 6 9 30.15 1021 10 16 N/A
4:52 pm 16:52 Partly Cloudy 64 17.8 34 1.1 33 33 SSW 12 19 30.12 1020 10 16 N/A
5:52 pm 17:52 Partly Cloudy 64 17.8 35 1.7 34 34 S 10 17 30.10 1019 10 16 N/A
6:52 pm 18:52 Partly Cloudy 63 17.2 33 0.6 33 33 S 12 19 30.09 1019 10 16 N/A
7:52 pm 19:52 Partly Cloudy 59 15 35 1.7 41 41 S 9 15 30.08 1019 10 16 N/A
8:52 pm 20:52 Partly Cloudy 55 12.8 36 2.2 49 49 S 8 13 30.06 1018 10 16 N/A
9:52 pm 21:52 Cloudy 56 13.3 38 3.3 51 51 S 10 17 30.05 1018 10 16 N/A
10:52 pm 22:52 Cloudy 57 13.9 38 3.3 49 49 S 9 15 30.04 1017 10 16 0.00 0.00
11:52 pm 23:52 Cloudy 56 13.3 39 3.9 53 53 SSW 9 15 30.05 1018 10 16 0.00 0.00

Powered by AerisWeather